TimeEDT,TemperatureF,Dew PointF,Humidity,Sea Level PressureIn,VisibilityMPH,Wind Direction,Wind SpeedMPH,Gust SpeedMPH,PrecipitationIn,Events,Conditions,WindDirDegrees,DateUTC
12:51 AM,73.9,71.1,91,29.94,9.0,Calm,Calm,-,N/A,,Clear,0,2013-09-04 04:51:00
1:51 AM,73.0,71.1,93,29.95,9.0,Calm,Calm,-,N/A,,Partly Cloudy,0,2013-09-04 05:51:00
2:51 AM,73.0,71.1,93,29.95,8.0,Calm,Calm,-,N/A,,Partly Cloudy,0,2013-09-04 06:51:00
3:51 AM,75.0,72.0,90,29.95,10.0,Calm,Calm,-,N/A,,Mostly Cloudy,0,2013-09-04 07:51:00
3:58 AM,75.2,71.6,89,29.95,10.0,Calm,Calm,-,N/A,,Scattered Clouds,0,2013-09-04 07:58:00
4:51 AM,73.9,71.1,91,29.96,10.0,Calm,Calm,-,N/A,,Clear,0,2013-09-04 08:51:00
5:51 AM,75.0,72.0,90,29.97,10.0,Calm,Calm,-,N/A,,Clear,0,2013-09-04 09:51:00
6:51 AM,75.0,72.0,90,29.99,10.0,Calm,Calm,-,N/A,,Partly Cloudy,0,2013-09-04 10:51:00
7:51 AM,77.0,71.1,82,30.02,10.0,NNE,3.5,-,N/A,,Mostly Cloudy,20,2013-09-04 11:51:00
8:51 AM,80.1,71.1,74,30.04,10.0,Variable,3.5,-,N/A,,Clear,0,2013-09-04 12:51:00
9:51 AM,82.0,72.0,71,30.06,10.0,NE,3.5,-,N/A,,Clear,50,2013-09-04 13:51:00
10:34 AM,82.4,71.6,70,30.07,10.0,Variable,4.6,-,N/A,,Mostly Cloudy,0,2013-09-04 14:34:00
10:49 AM,82.4,71.6,70,30.07,10.0,Variable,6.9,-,N/A,,Scattered Clouds,0,2013-09-04 14:49:00
10:51 AM,82.9,72.0,69,30.07,10.0,ENE,5.8,-,N/A,,Scattered Clouds,70,2013-09-04 14:51:00
11:51 AM,84.0,71.1,65,30.07,10.0,Variable,5.8,-,N/A,,Clear,0,2013-09-04 15:51:00
12:51 PM,84.9,68.0,57,30.08,10.0,East,3.5,-,N/A,,Partly Cloudy,90,2013-09-04 16:51:00
1:19 PM,84.2,69.8,62,30.07,10.0,ESE,8.1,-,N/A,,Mostly Cloudy,120,2013-09-04 17:19:00
1:30 PM,87.8,69.8,55,30.07,10.0,ESE,8.1,-,N/A,,Scattered Clouds,120,2013-09-04 17:30:00
1:51 PM,87.1,70.0,57,30.06,10.0,SE,5.8,-,N/A,,Clear,140,2013-09-04 17:51:00
2:51 PM,84.9,72.0,65,30.06,10.0,Variable,4.6,-,N/A,,Clear,0,2013-09-04 18:51:00
3:51 PM,84.9,72.0,65,30.05,10.0,Variable,4.6,-,N/A,,Clear,0,2013-09-04 19:51:00
4:36 PM,82.4,71.6,70,30.05,10.0,Variable,3.5,-,N/A,,Mostly Cloudy,0,2013-09-04 20:36:00
4:51 PM,82.9,72.0,69,30.05,10.0,ENE,3.5,-,N/A,,Mostly Cloudy,70,2013-09-04 20:51:00
5:27 PM,82.4,73.4,74,30.05,10.0,Calm,Calm,-,N/A,,Scattered Clouds,0,2013-09-04 21:27:00
5:51 PM,82.0,73.0,74,30.04,10.0,ENE,4.6,-,N/A,,Scattered Clouds,70,2013-09-04 21:51:00
6:51 PM,80.1,72.0,76,30.04,10.0,ENE,3.5,-,N/A,,Clear,70,2013-09-04 22:51:00
7:51 PM,77.0,72.0,84,30.05,10.0,East,3.5,-,N/A,,Clear,80,2013-09-04 23:51:00
8:51 PM,75.9,72.0,87,30.06,10.0,East,3.5,-,N/A,,Clear,90,2013-09-05 00:51:00
9:51 PM,75.0,72.0,90,30.08,8.0,East,3.5,-,N/A,,Clear,80,2013-09-05 01:51:00
10:51 PM,75.0,72.0,90,30.08,7.0,Calm,Calm,-,N/A,,Clear,0,2013-09-05 02:51:00
11:51 PM,73.9,71.1,91,30.08,7.0,Calm,Calm,-,N/A,,Clear,0,2013-09-05 03:51:00